Station: Hindmarsh Island  

  Atmospheric Gas Attenuation - ITU Rec 676-11   ----------------- dB/100km -----------------
Date Time Temp RH % AH g/m3 Dew Point Wind Direction Speed kph Gust kph Barometer mB Rainfall Since 9am 24GHz 47GHz 76GHz 122GHz 134GHz 241GHz
03/09 03:20 13.3 77 8.9 9.4 32 41 1013.3 0 20.3 26.5 41.3 108.4 103.1 354.7
03/09 03:10 13.1 77 8.79 9.2 28 39 1013.4 0 20.0 26.4 40.9 107.5 101.8 350.5
03/09 03:00 13 76 8.62 8.9 28 39 1013.6 0 19.7 26.2 40.3 105.8 99.7 343.0
03/09 02:50 13 76 8.62 8.9 28 43 1013.7 0 19.7 26.2 40.3 105.8 99.7 343.0
03/09 02:40 12.9 76 8.57 8.8 26 39 1013.6 0 19.6 26.1 40.1 105.4 99.2 341.1
03/09 02:30 12.8 77 8.63 8.9 26 35 1013.5 0 19.7 26.2 40.4 106.1 100.1 344.3
03/09 02:20 12.7 77 8.57 8.8 28 41 1013.6 0 19.6 26.2 40.2 105.6 99.4 342.0
03/09 02:10 12.7 77 8.57 8.8 26 41 1013.6 0 19.6 26.2 40.2 105.6 99.4 342.0
03/09 02:00 12.5 78 8.58 8.8 24 33 1013.7 0 19.6 26.3 40.4 106.0 99.8 343.3
03/09 01:50 12.5 77 8.47 8.6 24 32 1013.8 0 19.4 26.1 40.0 104.8 98.4 338.2
03/09 01:40 12.7 77 8.57 8.8 24 35 1013.9 0 19.6 26.2 40.3 105.7 99.5 342.0
03/09 01:30 12.6 76 8.41 8.5 22 32 1014 0 19.2 26.0 39.7 104.1 97.5 335.0
03/09 01:20 12.7 74 8.24 8.2 22 32 1014.1 0 18.9 25.7 38.9 102.1 95.1 326.7
03/09 01:10 12.9 74 8.34 8.4 22 32 1014.2 0 19.1 25.8 39.2 102.9 96.2 330.5
03/09 01:00 13 74 8.39 8.5 28 35 1014.2 0 19.2 25.8 39.4 103.4 96.7 332.4
03/09 00:50 12.8 75 8.4 8.5 26 35 1014.1 0 19.2 25.9 39.5 103.7 97.1 333.7
03/09 00:40 12.8 74 8.29 8.3 24 35 1014 0 19.0 25.7 39.1 102.5 95.6 328.6
03/09 00:30 12.7 74 8.24 8.2 24 39 1014 0 18.9 25.7 38.9 102.1 95.1 326.7
03/09 00:20 12.7 74 8.24 8.2 26 37 1014.1 0 18.9 25.7 38.9 102.1 95.1 326.7
03/09 00:10 12.7 75 8.35 8.4 24 33 1014.3 0 19.1 25.8 39.4 103.3 96.6 331.9
03/09 00:00 12.6 75 8.3 8.3 20 32 1014.5 0 19.0 25.8 39.2 102.9 96.0 330.0
02/09 23:50 12.5 75 8.25 8.2 17 22 1014.5 0 18.9 25.7 39.1 102.5 95.5 328.1
02/09 23:40 12.3 77 8.36 8.4 17 20 1014.7 0 19.1 26.0 39.6 104.0 97.2 334.2
02/09 23:30 12.2 78 8.42 8.5 19 26 1014.7 0 19.3 26.1 39.9 104.8 98.2 337.4
02/09 23:20 12 80 8.53 8.7 17 20 1014.7 0 19.5 26.4 40.5 106.3 99.9 343.5
02/09 23:10 11.9 80 8.47 8.6 15 24 1014.8 0 19.4 26.3 40.3 105.7 99.2 341.1
02/09 23:00 11.8 80 8.42 8.5 15 17 1014.9 0 19.3 26.2 40.1 105.3 98.7 339.2
02/09 22:50 11.7 80 8.37 8.4 13 20 1015.1 0 19.2 26.2 40.0 105.0 98.1 337.3
02/09 22:40 11.4 79 8.11 7.9 11 15 1015.1 0 18.7 25.9 39.1 102.5 95.0 326.3
02/09 22:30 11.5 78 8.06 7.8 11 15 1015 0 18.5 25.7 38.8 101.8 94.2 323.5
02/09 22:20 12.1 77 8.26 8.2 17 30 1015.1 0 18.9 25.9 39.4 103.2 96.2 330.4
02/09 22:10 12.1 77 8.26 8.2 17 26 1015.1 0 18.9 25.9 39.4 103.2 96.2 330.4
02/09 22:00 12.1 78 8.37 8.4 19 30 1015.4 0 19.2 26.1 39.8 104.4 97.7 335.7
02/09 21:50 11.9 81 8.58 8.7 19 24 1015.5 0 19.6 26.5 40.8 107.0 100.8 346.5
02/09 21:40 11.8 84 8.84 9.2 19 26 1015.4 0 20.2 27.0 41.9 110.0 104.4 359.3
02/09 21:30 12 84 8.95 9.4 24 33 1015.4 0 20.4 27.1 42.3 111.0 105.7 363.7
02/09 21:20 12 84 8.95 9.4 26 33 1015.4 0 20.4 27.1 42.3 111.0 105.7 363.7
02/09 21:10 12.3 83 9.01 9.5 26 39 1015.5 0 20.5 27.1 42.4 111.2 106.1 365.2
02/09 21:00 12.8 74 8.29 8.3 17 28 1015.5 0 19.0 25.8 39.1 102.7 95.7 329.0
02/09 20:50 12.6 75 8.3 8.3 15 20 1015.3 0 19.0 25.8 39.3 103.0 96.1 330.2
02/09 20:40 12.5 74 8.14 8 15 19 1015.3 0 18.7 25.6 38.7 101.4 94.1 323.2
02/09 20:30 12.3 73 7.93 7.6 15 20 1015.2 0 18.2 25.3 37.9 99.4 91.6 314.3
02/09 20:20 12.6 72 7.97 7.7 13 17 1015.1 0 18.3 25.3 37.9 99.5 91.7 314.9
02/09 20:10 12.8 72 8.07 7.9 11 17 1015 0 18.5 25.4 38.2 100.3 92.8 318.7
02/09 20:00 12.8 71 7.95 7.7 13 20 1015 0 18.2 25.2 37.8 99.0 91.2 313.2
02/09 19:50 12.9 71 8 7.8 15 20 1015 0 18.3 25.3 37.9 99.4 91.7 315.1
02/09 19:40 13 70 7.94 7.7 17 22 1015 0 18.2 25.1 37.6 98.6 90.8 311.9
02/09 19:30 13 69 7.83 7.5 20 26 1014.8 0 18.0 24.9 37.2 97.5 89.4 306.9
02/09 19:20 13 68 7.71 7.2 19 26 1014.7 0 17.7 24.7 36.7 96.2 87.8 301.4
02/09 19:10 12.8 66 7.39 6.6 15 24 1014.7 0 17.1 24.3 35.6 93.1 83.9 287.7
02/09 19:00 12.7 68 7.57 7 13 20 1014.5 0 17.4 24.6 36.3 95.1 86.3 296.1
02/09 18:50 12.5 71 7.81 7.4 11 15 1014.6 0 18.0 25.0 37.3 97.8 89.7 307.8
02/09 18:40 12.6 75 8.3 8.3 13 15 1014.7 0 19.0 25.8 39.3 103.0 96.0 330.1
02/09 18:30 12.6 76 8.41 8.5 11 17 1014.5 0 19.2 26.0 39.7 104.1 97.5 335.2
02/09 18:20 12.4 77 8.41 8.5 9 15 1014.4 0 19.2 26.0 39.8 104.4 97.7 336.0
02/09 18:10 12.4 76 8.3 8.3 13 17 1014.4 0 19.0 25.9 39.3 103.2 96.3 330.8
02/09 18:00 12.6 75 8.3 8.3 15 20 1014.4 0 19.0 25.8 39.2 102.9 96.0 330.0
02/09 17:50 12.7 74 8.24 8.2 15 22 1014.3 0 18.9 25.7 38.9 102.1 95.1 326.8
02/09 17:40 12.8 73 8.18 8.1 17 22 1014.3 0 18.7 25.5 38.7 101.4 94.2 323.6
02/09 17:30 13 72 8.17 8.1 19 24 1014.4 0 18.7 25.5 38.5 101.0 93.8 322.3
02/09 17:20 13 71 8.05 7.9 20 28 1014.4 0 18.5 25.3 38.0 99.7 92.2 316.8
02/09 17:10 13.3 69 7.97 7.7 22 32 1014.3 0 18.3 25.1 37.6 98.5 90.8 311.9
02/09 17:00 13.9 63 7.55 7 17 28 1014.2 0 17.3 24.2 35.7 93.4 84.8 290.7
02/09 16:50 14.1 61 7.4 6.7 19 26 1014 0 17.0 23.9 35.0 91.6 82.6 283.3
02/09 16:40 14.3 60 7.37 6.6 20 32 1014.1 0 16.9 23.8 34.8 91.1 82.1 281.3
02/09 16:30 14.5 59 7.34 6.6 19 28 1014.2 0 16.9 23.8 34.6 90.6 81.5 279.3
02/09 16:20 14.5 58 7.21 6.3 20 30 1014.2 0 16.6 23.6 34.1 89.2 79.9 273.6
02/09 16:10 14.4 57 7.05 6 22 30 1014.2 0 16.3 23.3 33.5 87.7 78.0 267.0
02/09 16:00 14.6 55 6.88 5.7 22 30 1014.2 0 15.9 23.0 32.8 85.8 75.7 259.0
02/09 15:50 14.7 57 7.18 6.3 17 24 1014.2 0 16.5 23.5 33.9 88.7 79.3 271.6
02/09 15:40 14.9 57 7.26 6.5 17 20 1014.3 0 16.7 23.5 34.1 89.3 80.1 274.5
02/09 15:30 14.8 53 6.71 5.3 19 26 1014.3 0 15.5 22.7 32.1 84.0 73.4 251.1
02/09 15:20 15 53 6.8 5.5 22 32 1014.3 0 15.7 22.8 32.4 84.6 74.3 254.3
02/09 15:10 14.8 54 6.84 5.6 20 30 1014.4 0 15.8 22.9 32.6 85.2 75.0 256.7
02/09 15:00 15 56 7.18 6.3 24 32 1014.5 0 16.5 23.4 33.8 88.4 79.0 270.7
02/09 14:50 14.7 56 7.05 6 26 35 1014.6 0 16.2 23.3 33.4 87.5 77.7 266.1
02/09 14:40 14.9 56 7.14 6.2 24 32 1014.4 0 16.4 23.4 33.7 88.1 78.6 269.3
02/09 14:30 14.9 60 7.65 7.2 17 24 1014.4 0 17.5 24.1 35.6 93.3 85.0 291.5
02/09 14:20 15.1 61 7.87 7.6 17 28 1014.4 0 18.0 24.4 36.4 95.3 87.5 300.5
02/09 14:10 15.3 62 8.1 8.1 19 32 1014.5 0 18.5 24.7 37.2 97.4 90.2 310.0
02/09 14:00 15.3 61 7.97 7.8 24 30 1014.6 0 18.2 24.5 36.7 96.1 88.6 304.2
02/09 13:50 15.3 62 8.1 8.1 22 32 1014.7 0 18.5 24.7 37.2 97.4 90.2 310.0
02/09 13:40 15 61 7.82 7.5 13 15 1014.7 0 17.9 24.4 36.2 94.9 87.0 298.7
02/09 13:30 15.5 61 8.06 8 20 30 1014.9 0 18.4 24.6 36.9 96.8 89.5 307.5
02/09 13:20 14.7 68 8.56 8.9 17 22 1015.1 0 19.5 25.6 39.3 103.0 96.9 333.3
02/09 13:10 14.1 69 8.37 8.5 24 30 1015.1 0 19.1 25.5 38.8 101.8 95.2 327.2
02/09 13:00 14.8 65 8.23 8.3 20 26 1015.1 0 18.8 25.1 37.9 99.4 92.5 317.9
02/09 12:50 14.6 65 8.13 8.1 20 26 1015.2 0 18.5 25.0 37.6 98.7 91.5 314.3
02/09 12:40 14.2 62 7.57 7 24 28 1015.4 0 17.4 24.2 35.7 93.4 84.8 290.8
02/09 12:30 14.3 64 7.86 7.6 24 30 1015.5 0 18.0 24.7 36.7 96.2 88.4 303.4
02/09 12:20 14.3 61 7.49 6.9 26 32 1015.6 0 17.2 24.1 35.3 92.4 83.7 286.9
02/09 12:10 15.2 62 8.05 8 24 28 1015.8 0 18.3 24.7 37.1 97.1 89.8 308.5
02/09 12:00 14.7 65 8.18 8.2 22 28 1015.9 0 18.6 25.1 37.8 99.1 92.0 316.3
02/09 11:50 14.6 66 8.26 8.3 20 26 1016 0 18.8 25.2 38.2 100.1 93.2 320.3
02/09 11:40 15.1 63 8.13 8.1 17 24 1016.3 0 18.5 24.9 37.4 98.1 91.0 312.6
02/09 11:30 15.4 60 7.88 7.7 15 20 1016.4 0 18.0 24.4 36.3 95.2 87.4 300.3
02/09 11:20 14.7 61 7.68 7.3 17 22 1016.6 0 17.6 24.3 35.9 94.0 85.7 294.1
02/09 11:10 14.7 62 7.81 7.5 17 20 1016.8 0 17.9 24.5 36.4 95.4 87.4 300.0
02/09 11:00 14.5 62 7.71 7.3 17 22 1016.9 0 17.7 24.4 36.1 94.6 86.3 296.3
02/09 10:50 14.4 61 7.54 7 19 22 1017 0 17.3 24.2 35.5 93.0 84.3 289.1

Last Refresh: 03-Sep-2026 03:26:54

Bureau of Meteorology